Погода в Усть-Качке

Россия / Пермский край     58°00′14″N   55°40′25″E
темп.,
°C
ветер,
м/с
пор.,
м/с
влажн.,
%
обл.,
%
осадки,
мм/ч
давл.,
гПа
погр.,
м
17 апреля, сб
сб1723:00+2ссв28705 0.0 1029172
02:00+1ссв22752 0.0 102930
05:000ссв22735 0.0 102918
08:00+2с13635 0.0 1029159
11:00+7с24495 0.0 10281069
14:00+10ссз34445 0.0 10271540
17:00+10ссз35436 0.0 10251758
20:00+7зсз226123 0.0 102414
18 апреля, вс
вс1823:00+4зсз26766 0.0 1024122
02:00+3зсз28822 0.0 1023197
05:00+2зсз39861 0.0 1023247
08:00+3с4987100 0.0 1024833
11:00+3ссв57440 0.1 10271149
14:00+5ссв46375 0.0 10281824
17:00+6всв4538100 0.0 10291896
20:00+4всв3644100 0.0 1031347
19 апреля, пн
пн1923:000всв266042 0.0 1033142
02:00−2всв24645 0.0 1034114
05:00−2всв24633 0.0 1036134
08:000в24455 0.0 1037377
11:00+3в34303 0.0 10371712
14:00+5всв23280 0.0 10361844
17:00+6всв23280 0.0 10361794
20:00+3св22440 0.0 103640
20 апреля, вт
вт2023:00−1всв11580 0.0 103710
02:00−1ссв01600 0.0 103710
05:00−1ссз00613 0.0 103710
08:00+1з11505 0.0 1037156
11:00+6зсз22325 0.0 1037995
14:00+8зсз22290 0.0 10351287
17:00+9сз22292 0.0 10341325
20:00+6з11450 0.0 103310
21 апреля, ср
ср2123:00+3з00540 0.0 103410
02:00+2ююз11590 0.0 103410
05:00+1юз11630 0.0 103410
08:00+4ююв01530 0.0 103486
11:00+9ююв23350 0.0 1033778
14:00+13ю24288 0.0 10321376
17:00+14ю352616 0.0 10301507
20:00+10ю224598 0.0 103030